SCD 1 1 22490U 93009B 25352.43975184 .00000452 00000+0 73092-4 0 9991 2 22490 24.9686 243.5007 0042042 25.3935 135.5853 14.46002995734929 TECHSAT 1B (GO-32) 1 25397U 98043D 25353.23960095 .00000059 00000+0 45722-4 0 9999 2 25397 98.9925 336.6018 0001867 47.1475 312.9859 14.24378852425717 SCD 2 1 25504U 98060A 25353.67460280 .00000353 00000+0 47822-4 0 9997 2 25504 24.9945 99.1342 0016943 26.9849 112.7893 14.45426850434326 DLR-TUBSAT 1 25757U 99029B 25351.55706930 .00000105 00000+0 37650-4 0 9996 2 25757 98.6566 336.2196 0014199 177.8976 182.2281 14.52359578406886 TERRA 1 25994U 99068A 25353.72839479 .00000336 00000+0 77750-4 0 9999 2 25994 97.9739 45.1561 0003550 80.7170 23.1037 14.60909243383405 MAROC-TUBSAT 1 27004U 01056D 25353.44713588 -.00000027 00000+0 22413-4 0 9998 2 27004 99.7914 162.0096 0019165 242.2818 146.9000 13.70253235201573 AQUA 1 27424U 02022A 25353.80385887 .00000725 00000+0 15510-3 0 9998 2 27424 98.4046 314.7980 0001349 112.3467 286.6091 14.61824191257064 IRS-P6 (RESOURCESAT-1) 1 28051U 03046A 25353.91276096 -.00000039 00000+0 44775-6 0 9992 2 28051 98.2172 33.9877 0064611 159.2123 13.0220 14.36077103154791 SHIYAN-1 (SY-1) 1 28220U 04012A 25353.14488726 .00010025 00000+0 36633-3 0 9990 2 28220 97.8932 55.0620 0005285 299.4151 60.6560 15.28303655183545 AURA 1 28376U 04026A 25353.84416104 .00000715 00000+0 15579-3 0 9996 2 28376 98.3194 304.1040 0001357 92.9045 267.2310 14.60961765140022 IRS-P5 (CARTOSAT-1) 1 28649U 05017A 25353.52992778 .00001040 00000+0 11213-3 0 9994 2 28649 97.5486 19.6421 0000832 50.2507 309.8785 14.90426279117053 SINAH 1 1 28893U 05043D 25353.79041514 .00000298 00000+0 66157-4 0 9998 2 28893 98.2608 122.3666 0015618 116.3353 243.9455 14.63969456 74279 EROS B 1 29079U 06014A 25353.76190612 .00129295 00000+0 10450-2 0 9997 2 29079 97.3469 110.6817 0003493 311.2616 48.8346 15.70429920 91901 RESURS-DK 1 1 29228U 06021A 25353.70982341 .00001861 00000+0 11373-3 0 9997 2 29228 69.9339 83.8253 0006864 253.3624 106.6789 15.12197286 75430 ARIRANG-2 (KOMPSAT-2) 1 29268U 06031A 25353.83046718 .00000361 00000+0 76553-4 0 9991 2 29268 97.8254 181.9574 0013207 284.8523 205.1243 14.64500003 35226 LAPAN-TUBSAT 1 29709U 07001A 25353.85210166 .00000168 00000+0 25947-4 0 9997 2 29709 98.1251 344.1548 0013428 53.0013 307.2428 14.85678857 24522 HAIYANG-1B 1 31113U 07010A 25353.51675679 .00000073 00000+0 43711-4 0 9990 2 31113 98.3320 337.5151 0013939 18.7934 341.3762 14.30967225974935 COSMO-SKYMED 1 1 31598U 07023A 25353.81221013 .00003005 00000+0 27447-3 0 9998 2 31598 97.8836 179.2577 0001581 85.3043 274.8358 14.95817648 2962 TERRASAR-X 1 31698U 07026A 25353.50309872 .00000640 00000+0 33660-4 0 9995 2 31698 97.4454 358.7850 0001854 93.3795 266.7652 15.19152518 25944 WORLDVIEW-1 (WV-1) 1 32060U 07041A 25353.28118608 .00006606 00000+0 26921-3 0 9995 2 32060 97.3841 110.6704 0000953 118.3440 241.7894 15.24792319 15477 YAOGAN-3 1 32289U 07055A 25353.86837456 .00001047 00000+0 11461-3 0 9993 2 32289 97.8359 20.4298 0001199 72.2369 287.8980 14.89888334979150 COSMO-SKYMED 2 1 32376U 07059A 25353.85315435 .00000361 00000+0 51902-4 0 9994 2 32376 97.8803 175.0698 0001354 82.9674 277.1693 14.82150683975434 RADARSAT-2 1 32382U 07061A 25353.84242595 .00000085 00000+0 49843-4 0 9993 2 32382 98.5791 358.3295 0001130 84.7440 275.3871 14.29983743940327 CARTOSAT-2A 1 32783U 08021A 25353.84232137 .00000769 00000+0 11100-3 0 9999 2 32783 97.7925 43.4443 0011297 341.6051 18.4750 14.78949368952297 HUANJING 1A (HJ-1A) 1 33320U 08041A 25353.91368212 .00000754 00000+0 97800-4 0 9997 2 33320 97.6535 341.9125 0019635 11.5846 348.5816 14.83413838931823 HUANJING 1B (HJ-1B) 1 33321U 08041B 25353.87507648 .00001222 00000+0 15537-3 0 9998 2 33321 97.6396 345.5538 0037999 53.2490 307.2203 14.82839443931834 GEOEYE 1 1 33331U 08042A 25353.76068204 .00000402 00000+0 84483-4 0 9994 2 33331 98.1245 64.9529 0002801 254.2617 105.8277 14.64709112923882 THEOS 1 33396U 08049A 25353.86829696 .00000082 00000+0 58570-4 0 9995 2 33396 98.5863 51.7479 0001167 95.8421 264.2889 14.20097574892515 COSMO-SKYMED 3 1 33412U 08054A 25353.84749550 .00006022 00000+0 42273-3 0 9990 2 33412 97.8468 204.3593 0016868 148.0614 212.1638 15.05421908929947 YAOGAN-4 1 33446U 08061A 25353.41978361 .00000929 00000+0 12167-3 0 9991 2 33446 97.9190 283.4536 0013167 299.8838 60.1067 14.82700550919026 GOSAT (IBUKI) 1 33492U 09002A 25353.20611260 .00000596 00000+0 11356-3 0 9996 2 33492 98.0771 101.7196 0000991 100.0781 260.0536 14.67537344905062 DEIMOS-1 1 35681U 09041A 25353.83741007 .00000904 00000+0 14151-3 0 9992 2 35681 97.7142 154.1100 0002614 68.2929 291.8559 14.74964702880443 DUBAISAT-1 1 35682U 09041B 25353.37630334 .00000921 00000+0 14564-3 0 9999 2 35682 97.9797 123.9586 0009289 290.7501 69.2712 14.74621138878591 OCEANSAT-2 1 35931U 09051A 25353.83932729 -.00000131 00000+0 -63654-4 0 9991 2 35931 98.2217 353.7196 0016034 26.4548 333.7434 13.99623219854244 WORLDVIEW-2 (WV-2) 1 35946U 09055A 25353.76703154 .00000121 00000+0 54631-4 0 9993 2 35946 98.4781 64.7551 0004952 53.4721 306.6921 14.37726879849862 SMOS 1 36036U 09059A 25353.47234841 .00000283 00000+0 10424-3 0 9998 2 36036 98.4380 178.4211 0001083 82.4110 277.7201 14.39746894847598 YAOGAN-7 1 36110U 09069A 25353.19687775 .00000451 00000+0 70030-4 0 9996 2 36110 98.0297 234.9307 0023351 259.2514 100.6067 14.77741395863047 TANDEM-X 1 36605U 10030A 25353.50309961 .00000666 00000+0 34902-4 0 9994 2 36605 97.4444 358.7845 0001806 78.9569 281.1868 15.19152689859365 CARTOSAT-2B 1 36795U 10035A 25353.88295801 .00000037 00000+0 11855-4 0 9991 2 36795 97.7848 42.6815 0012847 55.4614 304.7809 14.78732465833358 YAOGAN-10 1 36834U 10038A 25353.85887919 .00001481 00000+0 18161-3 0 9992 2 36834 97.9136 13.6266 0001446 79.3553 23.8226 14.84633897830593 COSMO-SKYMED 4 1 37216U 10060A 25353.79831072 .00000689 00000+0 93117-4 0 9998 2 37216 97.8798 175.0147 0001393 83.5261 276.6111 14.82153117817996 RESOURCESAT-2 1 37387U 11015A 25353.75356161 .00000104 00000+0 67683-4 0 9996 2 37387 98.7868 57.2736 0006104 23.8081 336.3377 14.21599895760681 HAIYANG-2A 1 37781U 11043A 25353.88864637 .00000053 00000+0 95768-4 0 9999 2 37781 99.3371 354.7131 0001642 73.9243 286.2089 13.78835975721972 RASAT 1 37791U 11044D 25353.86835961 .00000713 00000+0 13281-3 0 9999 2 37791 98.0651 83.0206 0021607 43.4535 94.9741 14.67919789766876 SRMSAT 1 37841U 11058D 25353.61177772 .00000383 00000+0 64258-4 0 9996 2 37841 19.9723 66.3596 0011928 29.0252 120.8933 14.11513672732416 PLEIADES 1A 1 38012U 11076F 25353.87930285 .00000209 00000+0 54746-4 0 9999 2 38012 98.1822 66.5381 0001176 73.0293 38.4113 14.58567221745854 ZIYUAN 1-02C (ZY 1-02C) 1 38038U 11079A 25353.86498557 .00000236 00000+0 92135-4 0 9994 2 38038 98.4331 59.7476 0007419 119.6293 18.2494 14.38019070733433 ARIRANG-3 (KOMPSAT-3) 1 38338U 12025B 25353.86222937 .00000388 00000+0 87612-4 0 9998 2 38338 98.3332 308.5055 0004925 314.0795 45.9999 14.61721361725146 EXACTVIEW-1 (ADS-1B) 1 38709U 12039C 25353.83576571 .00000094 00000+0 60016-4 0 9991 2 38709 98.9639 102.3747 0010316 333.2324 26.8321 14.24910656697167 SPOT 6 1 38755U 12047A 25353.80399756 .00000172 00000+0 46735-4 0 9995 2 38755 98.1570 58.4589 0001317 78.0781 282.0566 14.58537880706902 PLEIADES 1B 1 39019U 12068A 25353.82343271 .00000203 00000+0 53428-4 0 9997 2 39019 98.1793 66.3637 0001168 84.8595 275.2738 14.58558658694702 GOKTURK 2 1 39030U 12073A 25353.83825061 .00000256 00000+0 44769-4 0 9995 2 39030 97.6888 195.1424 0001252 108.2263 251.9083 14.75299795698066 LANDSAT 8 1 39084U 13008A 25353.79800081 .00000288 00000+0 74028-4 0 9999 2 39084 98.2064 61.7670 0001080 90.1662 269.9660 14.57109337671771 SARAL 1 39086U 13009A 25353.78096270 .00000084 00000+0 46766-4 0 9990 2 39086 98.5502 177.6194 0002955 95.2625 264.8896 14.32759303669913 GAOFEN-1 1 39150U 13018A 25353.88539169 .00000157 00000+0 29794-4 0 9995 2 39150 97.9325 64.4187 0018347 121.2551 239.0459 14.76490430681785 VNREDSAT 1 1 39160U 13021B 25353.86175917 .00000518 00000+0 10533-3 0 9996 2 39160 97.9370 48.8874 0001229 80.0406 280.0936 14.64932731674035 ARIRANG-5 (KOMPSAT-5) 1 39227U 13042A 25353.85956463 .00002344 00000+0 17163-3 0 9990 2 39227 97.6153 178.0613 0003446 37.9391 322.2077 15.04537678676896 SKYSAT-A 1 39418U 13066C 25353.62511942 .00003028 00000+0 18090-3 0 9992 2 39418 97.4099 43.6246 0021223 211.5864 148.4094 15.11650665661343 DUBAISAT-2 1 39419U 13066D 25353.87904627 .00002697 00000+0 17712-3 0 9997 2 39419 97.4443 344.0663 0009966 294.1550 65.8636 15.08418452659340 GPM-CORE 1 39574U 14009C 25353.81326314 .00005732 00000+0 12794-3 0 9990 2 39574 64.9719 188.9943 0009425 247.8879 112.1261 15.44567057670105 SENTINEL-1A 1 39634U 14016A 25353.84757312 -.00000049 00000+0 -59089-6 0 9993 2 39634 98.1796 358.9842 0001271 84.8287 275.3057 14.59201336623862 KAZEOSAT 1 1 39731U 14024A 25353.86747471 .00000162 00000+0 62491-4 0 9990 2 39731 98.3432 65.6153 0001164 95.8659 264.2664 14.42066330612710 ALOS-2 1 39766U 14029A 25353.84449977 .00002134 00000+0 29263-3 0 9991 2 39766 97.9232 88.5899 0001445 98.5313 261.6062 14.79470120625062 KAZEOSAT 2 1 40010U 14033A 25353.83408022 .00000122 00000+0 20057-4 0 9993 2 40010 97.5500 197.7819 0008220 181.8677 178.2510 14.85177746622335 HODOYOSHI-4 1 40011U 14033B 25353.80662617 .00001512 00000+0 17161-3 0 9998 2 40011 97.5405 182.3415 0023704 176.9447 183.1919 14.87505151622139 DEIMOS-2 1 40013U 14033D 25353.81838913 .00002443 00000+0 24021-3 0 9992 2 40013 97.6068 229.3847 0001447 106.4665 253.6714 14.93004395610952 HODOYOSHI-3 1 40015U 14033F 25353.69847866 .00001161 00000+0 14158-3 0 9993 2 40015 97.6204 159.2310 0032190 224.2275 135.6367 14.84828548620988 SPOT 7 1 40053U 14034A 25353.86585694 .00000287 00000+0 68289-4 0 9996 2 40053 98.0903 55.7775 0001554 84.8593 275.2785 14.60741895610953 SKYSAT-B 1 40072U 14037D 25353.81790359 .00001188 00000+0 13825-3 0 9997 2 40072 98.3621 297.8980 0006578 130.2703 229.9088 14.87350414619291 WORLDVIEW-3 (WV-3) 1 40115U 14048A 25353.78079253 .00000773 00000+0 97662-4 0 9997 2 40115 97.8772 65.9737 0001764 137.5396 222.5955 14.84662657615283 GAOFEN-2 1 40118U 14049A 25353.83727216 .00000027 00000+0 10518-4 0 9993 2 40118 98.0381 53.0185 0008714 93.1468 267.0741 14.80619001612699 YAOGAN-21 1 40143U 14053A 25353.84043630 .00002506 00000+0 10696-3 0 9998 2 40143 97.1752 36.8449 0009112 19.3080 340.8501 15.23743387627620 YAOGAN-22 1 40275U 14063A 25353.62870125 -.00000052 00000+0 -13452-4 0 9998 2 40275 100.7426 137.1455 0006010 231.5131 128.5441 13.15522939536200 ASNARO 1 40298U 14070A 25353.85101493 .00005905 00000+0 28010-3 0 9996 2 40298 97.3653 69.6243 0005789 102.0823 258.1061 15.19631019616779 YAOGAN-24 1 40310U 14072A 25353.86162516 .00000888 00000+0 13588-3 0 9996 2 40310 98.1221 124.9927 0015051 116.5280 243.7474 14.76191327597263 CBERS 4 1 40336U 14079A 25353.83460003 .00000001 00000+0 14821-4 0 9999 2 40336 98.3305 51.6089 0001792 104.3372 255.8013 14.35519780578225 YAOGAN-26 1 40362U 14088A 25353.88453230 .00012383 00000+0 31687-3 0 9991 2 40362 97.0637 354.3047 0005166 9.0520 351.0818 15.39536680610042 SMAP 1 40376U 15003A 25353.79802593 .00000377 00000+0 82005-4 0 9995 2 40376 98.1288 358.4201 0001223 91.7579 268.3763 14.63353304581389 KOMPSAT-3A 1 40536U 15014A 25353.87369110 .00014017 00000+0 30729-3 0 9998 2 40536 97.6789 328.6151 0005414 111.1559 249.0267 15.44193200594051 SENTINEL-2A 1 40697U 15028A 25353.84406991 -.00000108 00000+0 -24633-4 0 9993 2 40697 98.5745 66.2766 0001070 87.8162 272.3143 14.30807056548080 GAOFEN-8 1 40701U 15030A 25353.85839663 .00017220 00000+0 44989-3 0 9995 2 40701 97.6901 172.3466 0011898 113.9768 246.2723 15.38782050583806 CARBONITE 1 (CBNT-1) 1 40718U 15032D 25353.80201343 .00002371 00000+0 29900-3 0 9995 2 40718 97.6394 174.5345 0014950 158.3068 201.8782 14.82776851562751 YAOGAN-27 1 40878U 15040A 25353.84697935 -.00000245 00000+0 -53380-3 0 9990 2 40878 100.1006 343.1455 0007585 269.0607 90.9637 13.16060735494077 GAOFEN-9 01 1 40894U 15047A 25353.88592904 .00000793 00000+0 10464-3 0 9991 2 40894 97.6533 32.5326 0027820 11.3588 348.8248 14.82438582553629 YAOGAN-28 1 41026U 15064A 25353.85866201 .00005970 00000+0 24541-3 0 9992 2 41026 97.2809 131.4504 0012611 103.3406 256.9239 15.24462378563334 YAOGAN-29 1 41038U 15069A 25353.83723292 .00000692 00000+0 92048-4 0 9994 2 41038 98.0213 17.0321 0000457 176.6534 183.4682 14.82890975544045 KENT RIDGE 1 1 41167U 15077B 25353.65577622 .00003652 00000+0 12437-3 0 9992 2 41167 14.9781 159.8192 0008521 228.6000 131.3589 15.21687000553698 GAOFEN-4 1 41194U 15083A 25353.64405819 -.00000311 00000+0 00000+0 0 9995 2 41194 0.1878 81.7841 0002945 93.4275 250.8523 1.00273138 36722 JASON-3 1 41240U 16002A 25353.81817632 -.00000060 00000+0 96276-5 0 9995 2 41240 66.0398 142.9424 0007210 271.2282 88.7911 12.87626874464150 SENTINEL-3A 1 41335U 16011A 25353.82423242 .00000102 00000+0 60011-4 0 9994 2 41335 98.6306 58.7378 0000908 93.4901 266.6384 14.26733252512481 ZIYUAN 3-02 (ZY 3-02) 1 41556U 16033A 25353.89000101 .00005342 00000+0 24260-3 0 9991 2 41556 97.4041 67.9386 0011005 219.3639 140.6798 15.21151100530726 CARTOSAT-2C 1 41599U 16040A 25353.84431683 .00001252 00000+0 62731-4 0 9996 2 41599 97.4765 51.0217 0011141 40.7830 319.4237 15.19171104526488 SKYSAT-C1 1 41601U 16040C 25353.57624455 .00006827 00000+0 21842-3 0 9991 2 41601 96.9813 30.2048 0001580 351.0695 9.0520 15.32708118530325 LAPAN-A3 1 41603U 16040E 25353.88158102 .00002727 00000+0 91687-4 0 9998 2 41603 97.1423 351.1781 0008994 304.9457 55.0940 15.31605625527359 BIROS 1 41604U 16040F 25353.08012903 .00176218 13460-4 53352-3 0 9991 2 41604 97.0685 24.7778 0003544 134.1983 225.9584 15.92127149529734 GAOFEN-3 1 41727U 16049A 25353.88089657 -.00000088 00000+0 -13385-4 0 9991 2 41727 98.4032 359.3584 0001255 57.7589 302.3722 14.42214907492806 SKYSAT-C4 1 41771U 16058B 25353.02598809 .00012311 00000+0 28649-3 0 9998 2 41771 96.9363 17.9086 0002091 130.2828 229.8603 15.42424103517644 SKYSAT-C5 1 41772U 16058C 25353.40122809 .00007254 00000+0 22283-3 0 9992 2 41772 97.0750 36.8752 0003766 260.9520 99.1298 15.33990417516189 SKYSAT-C2 1 41773U 16058D 25352.99491890 .00009504 00000+0 26117-3 0 9995 2 41773 97.0351 17.2570 0003552 17.3368 342.7999 15.37407901517322 SKYSAT-C3 1 41774U 16058E 25353.83895875 .00013863 00000+0 29927-3 0 9996 2 41774 96.9286 27.2551 0001919 108.1196 252.0263 15.44638022518350 ALSAT 1B 1 41785U 16059C 25353.87481398 .00000424 00000+0 74916-4 0 9992 2 41785 97.7808 5.3571 0010830 83.2582 276.9858 14.72082591494198 PATHFINDER 1 1 41787U 16059E 25353.81485118 .00000556 00000+0 10611-3 0 9999 2 41787 97.8135 356.2601 0029858 59.6730 300.7423 14.67332694493401 SCATSAT 1 1 41790U 16059H 25353.62540528 .00001049 00000+0 14584-3 0 9990 2 41790 98.1455 50.3814 0056438 106.2754 254.4674 14.78957670 75049 GOKTURK 1A 1 41875U 16073A 25353.82205461 .00000397 00000+0 87004-4 0 9999 2 41875 98.1435 246.0926 0001253 81.1844 278.9500 14.62787480482601 RESOURCESAT-2A 1 41877U 16074A 25353.80627648 .00000088 00000+0 60564-4 0 9994 2 41877 98.7755 63.6213 0001371 222.0928 138.0144 14.21602525468814 CARTOSAT-2D 1 41948U 17008A 25353.87811965 .00002816 00000+0 13653-3 0 9992 2 41948 97.4387 51.2673 0005286 139.9201 220.2424 15.19324581490352 SENTINEL-2B 1 42063U 17013A 25353.83686056 -.00000103 00000+0 -22582-4 0 9995 2 42063 98.5715 66.1837 0001177 91.7517 268.3801 14.30812537458996 CARTOSAT-2E 1 42767U 17036C 25353.89470876 .00002766 00000+0 13442-3 0 9997 2 42767 97.4556 51.3884 0002404 202.6923 157.4206 15.19264161470920 FORMOSAT-5 1 42920U 17049A 25353.80732784 .00000143 00000+0 47583-4 0 9993 2 42920 98.2446 67.9847 0009843 277.5488 82.4588 14.50764426440662 SENTINEL-5P 1 42969U 17064A 25353.60397492 .00000034 00000+0 37143-4 0 9994 2 42969 98.7794 292.1275 0001020 90.2073 269.9220 14.19519070424083 SKYSAT-C11 1 42987U 17068A 25353.79196443 .00016416 00000+0 31864-3 0 9995 2 42987 97.4143 131.4598 0001151 100.0017 260.1363 15.47730564455409 SKYSAT-C10 1 42988U 17068B 25352.93414682 .00009118 00000+0 29573-3 0 9994 2 42988 97.4260 123.8024 0005455 86.4338 273.7528 15.32190604454741 SKYSAT-C9 1 42989U 17068C 25352.94562272 .00010438 00000+0 29760-3 0 9990 2 42989 97.4193 123.2487 0010548 67.9248 292.3115 15.36203039455030 SKYSAT-C8 1 42990U 17068D 25352.83304923 .00009527 00000+0 30082-3 0 9993 2 42990 97.4282 122.8599 0001170 316.3061 43.8088 15.33051371454646 SKYSAT-C7 1 42991U 17068E 25352.92695208 .00009081 00000+0 29205-3 0 9993 2 42991 97.4290 123.9903 0007238 38.2093 321.9661 15.32453251454721 SKYSAT-C6 1 42992U 17068F 25353.36644844 .00008034 00000+0 26559-3 0 9999 2 42992 97.4324 124.8648 0005010 64.6315 295.5445 15.31619298454777 CARTOSAT-2F 1 43111U 18004A 25353.86151610 .00002434 00000+0 11891-3 0 9994 2 43111 97.4311 51.3849 0001379 108.5081 251.6303 15.19185489440100 GAOFEN-1 02 1 43259U 18031A 25353.84088154 .00000299 00000+0 50472-4 0 9993 2 43259 98.0802 51.6331 0002185 189.7846 170.3321 14.76427634416237 GAOFEN-1 03 1 43260U 18031B 25353.88686303 .00000629 00000+0 97927-4 0 9992 2 43260 98.0789 51.5548 0001707 284.8530 75.2490 14.76450437416235 GAOFEN-1 04 1 43262U 18031D 25353.86247519 .00000702 00000+0 10844-3 0 9998 2 43262 98.0805 51.7012 0000757 47.9282 312.1992 14.76419727416226 SENTINEL-3B 1 43437U 18039A 25353.65717939 .00000103 00000+0 60427-4 0 9993 2 43437 98.6259 58.7431 0001630 94.9149 265.2217 14.26736516398529 GAOFEN-5 01 1 43461U 18043A 25353.84244125 .00000314 00000+0 75010-4 0 9996 2 43461 98.4335 316.9339 0000552 297.4065 62.7078 14.60416951405513 GAOFEN-6 1 43484U 18048A 25353.83348358 .00000807 00000+0 12256-3 0 9997 2 43484 97.8030 57.8627 0012904 42.6739 317.5472 14.76579148406926 GAOFEN-11 01 1 43585U 18063A 25353.85834888 .00007478 00000+0 13791-3 0 9992 2 43585 97.1559 56.7340 0003912 276.6160 83.4647 15.49406015412522 ICESAT-2 1 43613U 18070A 25353.80816404 .00008134 00000+0 29498-3 0 9992 2 43613 92.0049 242.6448 0003008 128.0543 232.0978 15.28317301405064 HYSIS 1 43719U 18096A 25353.81682218 .00001347 00000+0 19085-3 0 9992 2 43719 98.0095 56.7605 0001098 51.7176 308.4133 14.78664788380913 KAZSTSAT 1 43783U 18099AB 25353.07480788 .00000344 00000+0 32653-4 0 9995 2 43783 97.4535 27.9874 0005946 301.8992 58.1653 14.99363796384317 SAUDISAT 5A 1 43831U 18102A 25353.74299137 .00004364 00000+0 17358-3 0 9994 2 43831 97.3347 53.7992 0011455 54.6605 305.5702 15.25737834388298 SAUDISAT 5B 1 43833U 18102C 25353.79743873 .00004328 00000+0 17036-3 0 9995 2 43833 97.3442 56.6038 0012186 56.7045 303.5359 15.26087582388411 GAOFEN-10R 1 44622U 19066A 25353.87869170 .00001092 00000+0 14167-3 0 9997 2 44622 98.0287 301.4130 0007401 21.3154 338.8366 14.82814457335804 CARTOSAT-3 1 44804U 19081A 25353.80981293 .00002456 00000+0 11966-3 0 9999 2 44804 97.4581 53.3035 0014015 61.1173 299.1466 15.19207120336237 GAOFEN-12 01 1 44819U 19082A 25353.90648936 .00000343 00000+0 51244-4 0 9998 2 44819 97.8124 359.9994 0001789 197.2949 162.8203 14.80665173327569 CSG-1 1 44873U 19092A 25353.81096035 .00000409 00000+0 57885-4 0 9996 2 44873 97.8803 175.0286 0001488 86.1063 274.0321 14.82149247324906 NEMO-HD 1 46277U 20061F 25353.84001414 .00007440 00000+0 18570-3 0 9993 2 46277 97.2205 52.8481 0001429 51.6082 308.5293 15.40465715294338 SENTINEL-6A 1 46984U 20086A 25353.82314769 -.00000065 00000+0 -18193-4 0 9993 2 46984 66.0393 147.5954 0007715 269.3160 90.6971 12.80930846237355 GAOFEN-12 02 1 48079U 21026A 25353.83669480 .00000350 00000+0 52368-4 0 9996 2 48079 97.9853 347.8089 0003594 86.9837 273.1786 14.80683033255228 PLEIADES NEO 3 1 48268U 21034A 25353.88691697 .00000669 00000+0 91581-4 0 9998 2 48268 97.8951 66.2256 0001331 88.6165 271.5200 14.81672476251100 PLEIADES NEO 4 1 49070U 21073E 25353.85313784 -.00000220 00000+0 -21346-4 0 9995 2 49070 97.8951 66.1886 0001326 91.6070 268.5295 14.81672903234817 LANDSAT 9 1 49260U 21088A 25353.62642574 .00000317 00000+0 80500-4 0 9991 2 49260 98.2087 61.6374 0001115 91.1885 268.9441 14.57104632224852 CSG-2 1 51444U 22008A 25353.84471398 .00000015 00000+0 84468-5 0 9992 2 51444 97.8798 175.0603 0001445 84.2021 275.9357 14.82149464210027 GAOFEN-12 03 1 52912U 22069A 25353.87256066 .00001148 00000+0 15983-3 0 9998 2 52912 97.8490 241.0564 0002012 54.9493 305.1908 14.79626429188091 SWOT 1 54754U 22173A 25353.78099509 .00000029 00000+0 21055-4 0 9992 2 54754 77.6109 277.4849 0000361 92.9513 267.1680 14.00167878154043 GAOFEN-12 04 1 57654U 23123A 25353.84024828 .00000925 00000+0 12999-3 0 9990 2 57654 97.9127 269.4897 0001235 77.0590 283.0759 14.79718832126102 PARS 1 1 59065U 24039Q 25353.74609278 .00008777 00000+0 21357-3 0 9993 2 59065 97.4638 324.8279 0012121 51.1040 309.1286 15.41124704100961 RESURS-P 4 1 59371U 24061A 25353.82648650 .00002899 00000+0 95869-4 0 9993 2 59371 97.2555 300.0111 0001051 59.2139 300.9207 15.32137848 96291 LEGION 1 1 59625U 24081A 25353.79204801 .00003136 00000+0 16425-3 0 9994 2 59625 97.5210 68.3706 0003636 285.6477 74.4355 15.16544655 90346 LEGION 2 1 59626U 24081B 25353.75903949 .00003893 00000+0 20294-3 0 9999 2 59626 97.5214 68.4257 0005626 263.0389 97.0204 15.16557595 90347 ALOS-4 (DAICHI-4) 1 60182U 24123A 25353.86382685 .00001426 00000+0 19776-3 0 9998 2 60182 97.9224 88.6094 0001386 101.4337 258.7031 14.79474045 79360 LEGION 3 1 60452U 24146A 25353.67588035 .00003187 00000+0 17712-3 0 9993 2 60452 45.0022 272.9476 0015616 236.0936 123.8458 15.15829906 74780 LEGION 4 1 60453U 24146B 25353.74211764 .00003302 00000+0 18302-3 0 9999 2 60453 45.0395 4.3645 0008815 348.4810 11.5866 15.15892363 73648 SENTINEL-2C 1 60989U 24157A 25353.17263926 .00000114 00000+0 59973-4 0 9997 2 60989 98.5677 65.5625 0001220 96.2932 263.8390 14.30819997 67242 IONOSFERA-M 1 1 61735U 24199A 25353.79014693 .00000040 00000+0 37465-4 0 9996 2 61735 98.7399 223.5841 0000621 12.7318 347.3875 14.22715455102191 IONOSFERA-M 2 1 61736U 24199B 25353.75445554 .00000036 00000+0 35946-4 0 9994 2 61736 98.7398 223.4611 0001791 101.7231 258.4147 14.22717649105315 BIOMASS 1 63772U 25090A 25353.43586197 .00000764 00000+0 14315-3 0 9995 2 63772 98.0700 178.3481 0001070 79.7157 280.4168 14.67534976 34320 GOSAT-GW (IBUKI GW) 1 64694U 25141A 25353.87333647 .00000358 00000+0 71519-4 0 9993 2 64694 98.0434 289.2570 0001445 83.5817 276.5552 14.67564393 25544 IONOSFERA-M 3 1 64876U 25155A 25353.89288994 .00000042 00000+0 38671-4 0 9998 2 64876 98.5792 315.5568 0002032 48.5671 311.5681 14.21442672 20936 IONOSFERA-M 4 1 64877U 25155B 25353.85755965 .00000042 00000+0 38579-4 0 9999 2 64877 98.5791 315.4419 0001432 56.2825 303.8489 14.21443820 20925 MICROCARB 1 64899U 25156A 25353.44794792 .00000509 00000+0 88769-4 0 9994 2 64899 98.0019 68.6857 0017459 124.5488 235.7370 14.72067357 21522 CO3D 3 1 64900U 25156B 25353.82054725 .00005533 00000+0 25856-3 0 9993 2 64900 97.4348 70.0866 0001387 76.6295 283.5094 15.20196017 22284 CO3D 4 1 64901U 25156C 25353.62321823 .00004564 00000+0 21367-3 0 9994 2 64901 97.4340 69.8917 0001264 174.7354 185.3894 15.20230123 22251 CO3D 2 1 64902U 25156D 25352.99748185 .00000402 00000+0 21688-4 0 9992 2 64902 97.4339 69.1735 0000612 62.3895 297.7402 15.20201426 22155 CO3D 1 1 64903U 25156E 25353.85332818 .00003802 00000+0 17874-3 0 9999 2 64903 97.4345 70.0177 0000954 72.3266 287.8073 15.20191857 22280 SENTINEL-6B 1 66514U 25264A 25346.25094246 -.00000018 00000+0 18573-3 0 9999 2 66514 66.0385 163.4531 0007848 270.1376 89.8740 12.81479578 3223